Home > Weather > Liverpool > Past weeks

Flag for United Kingdom Weather for the Past 2 Weeks in Liverpool, England, United Kingdom

Now
39 °F

Passing clouds.


Feels Like: 33 °F
Forecast: 42 / 45 °F
Wind: 9 mph from Southwest

Location: Liverpool Airport

Current Time: Feb 9, 2016 at 7:58:36 AM

Latest Report: Feb 9, 2016 at 7:20 AM


Visibility: N/A

Pressure: 29.03 "Hg

Humidity: 81%

Dew point: 34 °F

Location of LiverpoolLocation

Historic Weather in Liverpool — Graph

°F

Liverpool Temperature Yesterday

Maximum temperature yesterday: 48 °F (at 12:50 PM)
Minimum temperature yesterday: 43 °F (at 11:50 PM)
Average temperature yesterday: 45 °F

High & Low Weather Summary for the Past Weeks

 TemperatureHumidityPressure
High57 °F (Jan 25, 1:20 PM)100% (Jan 27, 1:20 AM)30.27 "Hg (Jan 27, 1:20 AM)
Low37 °F (Feb 3, 5:20 AM)57% (Feb 2, 1:50 AM)28.68 "Hg (Feb 8, 7:20 AM)
Average47 °F82%29.65 "Hg
* Reported Jan 25 6:20 AM — Feb 9 6:50 AM, Liverpool, Weather by CustomWeather, © 2016

Note: Actual official high and low records may vary slightly from our data, if they occured in-between our weather recording intervals... More about our weather records

Advertising

Liverpool Weather History for the Previous 24 Hours

 ConditionsComfort  
Time TempWeatherWind HumidityBarometerVisibility
6:50 AM
Tue, Feb 9
39 °FPassing clouds.10 mph81%29.06 "HgN/A
6:20 AM39 °FPassing clouds.12 mph81%29.06 "HgN/A
5:50 AM39 °FPassing clouds.10 mph81%29.06 "HgN/A
5:20 AM41 °FClear.12 mph76%29.09 "Hg10 mi
4:50 AM41 °FClear.14 mph76%29.09 "Hg10 mi
4:20 AM41 °FPassing clouds.15 mph76%29.09 "HgN/A
3:50 AM41 °FPassing clouds.14 mph81%29.09 "HgN/A
3:20 AM41 °FPassing clouds.14 mph76%29.12 "HgN/A
2:50 AM41 °FPassing clouds.17 mph81%29.12 "HgN/A
2:20 AM41 °FPassing clouds.15 mph81%29.15 "HgN/A
1:50 AM41 °FPassing clouds.15 mph81%29.15 "HgN/A
1:20 AM41 °FPartly cloudy.18 mph81%29.15 "HgN/A
12:50 AM43 °FPassing clouds.14 mph81%29.15 "HgN/A
12:20 AM43 °FPassing clouds.16 mph76%29.15 "HgN/A
11:50 PM
Mon, Feb 8
43 °FPassing clouds.13 mph76%29.15 "HgN/A
11:20 PM45 °FPassing clouds.17 mph76%29.15 "HgN/A
10:20 PM45 °FPartly cloudy.17 mph76%29.15 "HgN/A
9:50 PM45 °FPassing clouds.17 mph76%29.15 "HgN/A
9:20 PM45 °FPassing clouds.20 mph76%29.15 "HgN/A
8:50 PM45 °FPassing clouds.26 mph76%29.12 "HgN/A
8:20 PM45 °FPassing clouds.23 mph81%29.12 "HgN/A
7:50 PM45 °FLight rain. Passing clouds.23 mph81%29.12 "HgN/A
7:20 PM45 °FLight rain. Passing clouds.29 mph87%29.09 "HgN/A
6:50 PM45 °FRain. Partly cloudy.31 mph87%29.06 "Hg5 mi
6:20 PM46 °FRain. Partly cloudy.31 mph87%29.06 "Hg6 mi
5:50 PM46 °FRain. Partly cloudy.29 mph87%29.03 "Hg6 mi
5:20 PM46 °FRain showers. Partly cloudy.31 mph87%29.00 "HgN/A
4:50 PM46 °FRain. Broken clouds.32 mph93%28.97 "Hg6 mi
4:20 PM45 °FRain. Broken clouds.26 mph93%28.97 "Hg4 mi
3:50 PM46 °FLight rain. Partly sunny.32 mph87%28.94 "HgN/A
3:20 PM46 °FRain. Mostly cloudy.29 mph93%28.88 "Hg2 mi
2:50 PM46 °FRain showers. Broken clouds.29 mph87%28.88 "Hg3 mi
2:20 PM46 °FSprinkles. Partly sunny.31 mph87%28.85 "HgN/A
1:50 PM45 °FRain showers. Partly sunny.24 mph87%28.82 "Hg4 mi
1:20 PM46 °FSprinkles. Partly sunny.24 mph82%28.82 "HgN/A
12:50 PM48 °FSprinkles. Partly sunny.30 mph82%28.80 "HgN/A
12:20 PM46 °FScattered showers. Partly sunny.28 mph82%28.77 "HgN/A
11:50 AM46 °FScattered showers. Partly sunny.25 mph82%28.77 "HgN/A
11:20 AM46 °FSprinkles. Partly sunny.22 mph82%28.74 "HgN/A
10:50 AM46 °FSprinkles. Partly sunny.20 mph82%28.74 "HgN/A
10:20 AM46 °FScattered showers. Partly sunny.20 mph82%28.71 "HgN/A
9:50 AM46 °FScattered showers. Partly sunny.25 mph82%28.68 "HgN/A
9:20 AM45 °FSprinkles. Partly sunny.18 mph87%28.68 "HgN/A
8:50 AM45 °FSprinkles. Partly sunny.22 mph81%28.68 "HgN/A
8:20 AM46 °FSprinkles. Partly sunny.24 mph82%28.68 "HgN/A
7:50 AM45 °FSprinkles. Partly sunny.23 mph87%28.68 "HgN/A
7:20 AM45 °FRain. Passing clouds.24 mph87%28.68 "Hg4 mi
Weather by CustomWeather, © 2016

See weather overviewHow to use our weather pages